Date String (YYYY-MM-DD hh:mm:ss) UTC,Instrument flags,absolute air pressure of the measurement (hPa),sample flow rate (lpm),inlet stack bypass flow (lpm),air temperature of the measurement (°C),ambient temperature measured by the external sensor (°C),aerosol sample conditioner tube jacket temperature (°C),OPC LED temperature (°C),internal box temperature (°C),relative humidity of the measurement (%),span deviation,mass concentration of particles derived from Lorenz-Mie calculation of OPC scattering (μg/m³),mass concentration of particles derived from Lorenz-Mie calculation of OPC scattering (μg/m³),mass concentration of particles derived from Lorenz-Mie calculation of OPC scattering (μg/m³)
DateTimeUTC,F1_M11,P_M11,Q1_M11,Q2_M11,T1_M11,T2_M11,T3_M11,T4_M11,T5_M11,U1_M11,ZSPAN_M11,X0_M11,X2_M11,X1_M11
2023-09-20 04:00:00,SystemResetWarning,0829.7,5.00,000.00,028.2,024.8,000.0,036.7,029.4,19.8,0000.0,0002.70,0001.65,0001.32
2023-09-20 04:01:00,SystemResetWarning,0829.7,5.00,000.00,028.1,025.1,000.0,036.7,029.5,19.9,0000.0,0002.71,0001.66,0001.32
2023-09-20 04:02:00,SystemResetWarning,0829.7,5.00,000.00,028.1,025.4,000.0,036.7,029.6,20.0,0000.0,0002.66,0001.66,0001.32
2023-09-20 04:03:00,SystemResetWarning,0829.7,5.00,000.00,028.1,025.7,000.0,036.6,029.7,20.1,0000.0,0002.47,0001.65,0001.32
2023-09-20 04:04:00,SystemResetWarning,0829.7,4.99,000.00,028.1,025.9,000.0,036.6,029.7,20.1,0000.0,0002.98,0001.67,0001.33
2023-09-20 04:05:00,SystemResetWarning,0829.7,4.99,000.00,028.1,026.1,000.0,036.6,029.7,20.0,0000.0,0003.44,0001.73,0001.34
2023-09-20 04:06:00,SystemResetWarning,0829.7,5.00,000.00,028.1,026.3,000.0,036.5,029.7,20.0,0000.0,0003.40,0001.71,0001.36
2023-09-20 04:07:00,SystemResetWarning,0829.6,5.00,000.00,028.1,026.4,000.0,036.5,029.8,20.0,0000.0,0003.66,0001.74,0001.39
2023-09-20 04:08:00,SystemResetWarning,0829.7,5.00,000.00,028.1,026.5,000.0,036.5,029.8,19.6,0000.0,0003.78,0001.76,0001.39
2023-09-20 04:09:00,SystemResetWarning,0829.7,5.01,000.00,028.2,026.6,000.0,036.5,029.8,19.5,0000.0,0003.69,0001.77,0001.41
2023-09-20 04:10:00,SystemResetWarning,0829.6,5.00,000.00,028.2,026.7,000.0,036.5,029.9,19.2,0000.0,0003.66,0001.75,0001.41
2023-09-20 04:11:00,SystemResetWarning,0829.6,5.00,000.00,028.2,026.7,000.0,036.5,029.9,19.1,0000.0,0003.65,0001.74,0001.42
2023-09-20 04:12:00,SystemResetWarning,0829.5,5.00,000.00,028.2,026.8,000.0,036.5,029.9,18.6,0000.0,0003.58,0001.72,0001.43
2023-09-20 04:13:00,SystemResetWarning,0829.5,4.99,000.00,028.2,026.8,000.0,036.5,029.9,18.5,0000.0,0003.56,0001.71,0001.44
2023-09-20 04:14:00,SystemResetWarning,0829.5,4.99,000.00,028.2,026.9,000.0,036.5,029.9,18.7,0000.0,0003.77,0001.76,0001.44
2023-09-20 04:15:00,SystemResetWarning,0829.5,5.01,000.00,028.3,026.9,000.0,036.6,030.0,19.6,0000.0,0003.39,0001.75,0001.44
2023-09-20 04:16:00,SystemResetWarning,0829.5,5.01,000.00,028.3,026.9,000.0,036.6,030.0,19.8,0000.0,0002.91,0001.71,0001.44
2023-09-20 04:17:00,SystemResetWarning,0829.5,5.01,000.00,028.3,026.9,000.0,036.6,030.0,19.7,0000.0,0002.99,0001.73,0001.44
2023-09-20 04:18:00,SystemResetWarning,0829.5,5.00,000.00,028.3,026.9,000.0,036.6,030.0,19.6,0000.0,0002.86,0001.76,0001.43
2023-09-20 04:19:00,SystemResetWarning,0829.4,4.98,000.00,028.3,027.0,000.0,036.6,030.0,19.5,0000.0,0002.66,0001.77,0001.41
2023-09-20 04:20:00,SystemResetWarning,0829.4,5.00,000.00,028.3,027.0,000.0,036.6,030.0,19.4,0000.0,0002.57,0001.72,0001.38
2023-09-20 04:21:00,SystemResetWarning,0829.4,5.01,000.00,028.3,027.0,000.0,036.6,030.1,19.2,0000.0,0002.68,0001.71,0001.37
2023-09-20 04:22:00,SystemResetWarning,0829.4,5.00,000.00,028.4,027.0,000.0,036.6,030.1,19.0,0000.0,0002.69,0001.70,0001.35
2023-09-20 04:23:00,SystemResetWarning,0829.4,5.01,000.00,028.4,027.1,000.0,036.7,030.1,19.0,0000.0,0002.61,0001.66,0001.34
2023-09-20 04:24:00,SystemResetWarning,0829.4,4.99,000.00,028.4,027.1,000.0,036.7,030.1,18.9,0000.0,0002.60,0001.65,0001.32
2023-09-20 04:25:00,SystemResetWarning,0829.4,4.99,000.00,028.4,027.1,000.0,036.7,030.1,19.0,0000.0,0002.44,0001.63,0001.30
2023-09-20 04:26:00,SystemResetWarning,0829.4,5.00,000.00,028.4,027.1,000.0,036.7,030.1,19.0,0000.0,0002.34,0001.62,0001.31
2023-09-20 04:27:00,SystemResetWarning,0829.4,5.01,000.00,028.4,027.1,000.0,036.7,030.1,18.9,0000.0,0002.36,0001.59,0001.29
2023-09-20 04:28:00,SystemResetWarning,0829.4,5.01,000.00,028.4,027.1,000.0,036.7,030.1,18.8,0000.0,0002.36,0001.58,0001.28
2023-09-20 04:29:00,SystemResetWarning,0829.4,4.99,000.00,028.5,027.1,000.0,036.8,030.1,18.7,0000.0,0002.25,0001.52,0001.27
2023-09-20 04:30:00,SystemResetWarning,0829.5,4.99,000.00,028.5,027.2,000.0,036.8,030.2,18.7,0000.0,0002.17,0001.48,0001.27
2023-09-20 04:31:00,SystemResetWarning,0829.5,5.00,000.00,028.5,027.2,000.0,036.8,030.2,18.8,0000.0,0002.56,0001.53,0001.28
2023-09-20 04:32:00,SystemResetWarning,0829.5,5.00,000.00,028.5,027.2,000.0,036.8,030.2,18.9,0000.0,0002.76,0001.56,0001.28
2023-09-20 04:33:00,SystemResetWarning,0829.5,5.01,000.00,028.5,027.2,000.0,036.8,030.2,18.9,0000.0,0002.74,0001.57,0001.28
2023-09-20 04:34:00,SystemResetWarning,0829.5,5.00,000.00,028.5,027.2,000.0,036.8,030.2,19.0,0000.0,0002.80,0001.60,0001.29
2023-09-20 04:35:00,SystemResetWarning,0829.5,5.00,000.00,028.5,027.2,000.0,036.8,030.2,19.0,0000.0,0002.85,0001.64,0001.30
2023-09-20 04:36:00,SystemResetWarning,0829.6,5.00,000.00,028.6,027.2,000.0,036.8,030.2,19.0,0000.0,0003.21,0001.65,0001.32
2023-09-20 04:37:00,SystemResetWarning,0829.5,4.99,000.00,028.6,027.3,000.0,036.9,030.2,18.9,0000.0,0003.43,0001.65,0001.31
2023-09-20 04:38:00,SystemResetWarning,0829.5,5.00,000.00,028.6,027.3,000.0,036.9,030.2,18.9,0000.0,0003.44,0001.66,0001.33
2023-09-20 04:39:00,SystemResetWarning,0829.5,5.01,000.00,028.6,027.3,000.0,036.9,030.3,18.8,0000.0,0003.43,0001.69,0001.34
2023-09-20 04:40:00,SystemResetWarning,0829.5,5.00,000.00,028.6,027.3,000.0,036.9,030.3,18.7,0000.0,0003.50,0001.71,0001.35
2023-09-20 04:41:00,SystemResetWarning,0829.5,5.01,000.00,028.6,027.3,000.0,036.9,030.3,18.6,0000.0,0003.48,0001.71,0001.35
2023-09-20 04:42:00,SystemResetWarning,0829.4,5.00,000.00,028.6,027.3,000.0,036.9,030.3,18.7,0000.0,0003.42,0001.74,0001.36
2023-09-20 04:43:00,SystemResetWarning,0829.5,5.00,000.00,028.7,027.4,000.0,036.9,030.4,18.7,0000.0,0003.04,0001.74,0001.37
2023-09-20 04:44:00,SystemResetWarning,0829.5,4.99,000.00,028.7,027.1,000.0,036.9,030.3,18.6,0000.0,0003.01,0001.72,0001.38
2023-09-20 04:45:00,SystemResetWarning,0829.4,4.99,000.00,028.6,025.3,000.0,036.9,029.7,18.4,0000.0,0003.06,0001.73,0001.39
2023-09-20 04:46:00,SystemResetWarning,0829.3,5.00,000.00,028.4,024.2,000.0,036.8,029.5,18.4,0000.0,0003.06,0001.72,0001.38
2023-09-20 04:47:00,SystemResetWarning,0829.4,5.01,000.00,028.3,024.2,000.0,036.8,029.4,18.5,0000.0,0002.80,0001.73,0001.38
2023-09-20 04:48:00,SystemResetWarning,0829.3,5.00,000.00,028.2,024.5,000.0,036.8,029.4,18.5,0000.0,0002.64,0001.77,0001.39
2023-09-20 04:49:00,SystemResetWarning,0829.4,4.99,000.00,028.2,024.9,000.0,036.7,029.4,18.5,0000.0,0002.58,0001.78,0001.38
2023-09-20 04:50:00,SystemResetWarning,0829.3,5.00,000.00,028.1,025.2,000.0,036.7,029.5,18.5,0000.0,0002.52,0001.75,0001.37
2023-09-20 04:51:00,SystemResetWarning,0829.4,5.00,000.00,028.1,025.5,000.0,036.7,029.5,18.5,0000.0,0002.51,0001.74,0001.36
2023-09-20 04:52:00,SystemResetWarning,0829.4,5.00,000.00,028.1,025.7,000.0,036.6,029.6,18.4,0000.0,0002.57,0001.77,0001.38
2023-09-20 04:53:00,SystemResetWarning,0829.4,4.99,000.00,028.1,025.9,000.0,036.6,029.6,18.5,0000.0,0002.47,0001.76,0001.39
2023-09-20 04:54:00,SystemResetWarning,0829.4,5.00,000.00,028.1,026.1,000.0,036.6,029.6,18.6,0000.0,0002.43,0001.74,0001.39
2023-09-20 04:55:00,SystemResetWarning,0829.3,4.99,000.00,028.1,026.2,000.0,036.6,029.6,18.3,0000.0,0002.42,0001.76,0001.41
2023-09-20 04:56:00,SystemResetWarning,0829.3,5.00,000.00,028.1,026.4,000.0,036.6,029.7,18.0,0000.0,0002.35,0001.75,0001.41
2023-09-20 04:57:00,SystemResetWarning,0829.3,5.00,000.00,028.1,026.4,000.0,036.5,029.7,17.7,0000.0,0002.38,0001.76,0001.42
2023-09-20 04:58:00,SystemResetWarning,0829.3,5.00,000.00,028.1,026.5,000.0,036.5,029.7,17.5,0000.0,0002.31,0001.74,0001.43
2023-09-20 04:59:00,SystemResetWarning,0829.3,5.00,000.00,028.1,026.6,000.0,036.5,029.8,17.5,0000.0,0002.24,0001.70,0001.43
